Weather History for Mosul, Iraq

Change the Weather History Date:

Thursday, February 14, 2013

  Actual Average Record
Temperature  
Mean Temperature 54 °F -  
Max Temperature 66 °F - - ()
Min Temperature 42 °F - - ()
Degree Days  
Heating Degree Days 11    
Growing Degree Days 4 (Base 50)    
Moisture  
Dew Point 43 °F    
Average Humidity 74    
Maximum Humidity 99    
Minimum Humidity 33    
Precipitation  
Precipitation 0.00 in - - ()
Sea Level Pressure  
Sea Level Pressure 30.16 in    
Wind  
Wind Speed 1 mph ()    
Max Wind Speed 6 mph    
Max Gust Speed -    
Visibility 4.7 miles    
Events      
T = Trace of Precipitation, MM = Missing Value Source: Averaged Metar Reports

Daily Weather History Graph

Daily Weather History Graph

Search for Another Location

Airport:

Trip Planner

Search our weather history database for the weather conditions in past years. The results will help you decide how hot, cold, wet, or windy it might be!

Date:

Astronomy

Feb. 14, 2013 Rise Set
Actual Time 6:56 AM AST 5:47 PM AST
Civil Twilight 6:29 AM AST 6:13 PM AST
Nautical Twilight 5:59 AM AST 6:43 PM AST
Astronomical Twilight 5:29 AM AST 7:13 PM AST
Moon 8:55 AM AST (2/14) 10:18 PM AST (2/14)
Length of Visible Light 11h 43m
Length of Day
10h 51m
Waxing Crescent, 18% of the Moon is Illuminated
Feb 14
Waxing Crescent
Feb 17
First Quarter
Feb 25
Full
Mar 5
Last Quarter
Mar 11
New

Hourly Weather History & Observations

Time (AST) Temp. Windchill Dew Point Humidity Pressure Visibility Wind Dir Wind Speed Gust Speed Precip Events Conditions
12:00 AM 47 °F - 45 °F 88% 30.25 in 6 mi Calm Calm - -  
12:00 AM 46.4 °F - 42.8 °F 87% 30.18 in - Calm Calm - N/A   Clear
1:00 AM 46.4 °F - 42.8 °F 87% 30.18 in - Calm Calm - N/A   Clear
3:00 AM 44 °F - 42 °F 91% 30.26 in 6 mi Calm Calm - -  
3:00 AM 44.6 °F - 41.0 °F 87% 30.21 in - Calm Calm - N/A   Clear
4:00 AM 44.6 °F - 41.0 °F 87% 30.18 in - Variable 2.3 mph - N/A   Clear
5:00 AM 44.6 °F - 41.0 °F 87% 30.18 in - Calm Calm - N/A   Clear
6:00 AM 42 °F - 40 °F 89% 30.25 in 6 mi Calm Calm - -  
6:00 AM 44.6 °F - 41.0 °F 87% 30.18 in - Calm Calm - N/A   Clear
7:00 AM 42.8 °F - 39.2 °F 87% 30.18 in 4.3 mi Calm Calm - N/A   Unknown
8:00 AM 42.8 °F - 41.0 °F 93% 30.21 in 3.7 mi Calm Calm - N/A   Unknown
9:00 AM 42 °F - 42 °F 99% 30.26 in 4 mi Calm Calm - -   Mist
9:00 AM 46.4 °F 44.3 °F 42.8 °F 87% 30.18 in 3.7 mi WNW 4.6 mph - N/A   Mostly Cloudy
10:00 AM 48.2 °F - 39.2 °F 71% 30.21 in 3.7 mi WNW 4.6 mph - N/A   Unknown
11:00 AM 53.6 °F - 44.6 °F 72% 30.18 in 3.7 mi WNW 4.6 mph - N/A   Mostly Cloudy
12:00 PM 55 °F - 47 °F 66% 30.22 in 5 mi Calm Calm - -   Haze
12:00 PM 55.4 °F - 48.2 °F 77% - 3.7 mi WNW 2.3 mph - N/A   Scattered Clouds
1:00 PM 59.0 °F - 39.2 °F 48% 30.15 in 5.0 mi WNW 5.8 mph - N/A   Unknown
2:00 PM 60.8 °F - 37.4 °F 42% 30.15 in - North - - N/A   Scattered Clouds
3:00 PM 62 °F - 40 °F 33% 30.15 in 6 mi Calm Calm - -   Clear
4:00 PM 66.2 °F - 39.2 °F 37% 30.12 in - Calm Calm - N/A   Clear
5:00 PM 60.8 °F - 41.0 °F 48% 30.09 in 5.6 mi Calm Calm - N/A   Mostly Cloudy
6:00 PM 60 °F - 45 °F 47% 30.14 in 6 mi Calm Calm - -   Partly Cloudy
6:00 PM 59.0 °F - 48.2 °F 67% 30.09 in 5.0 mi Calm Calm - N/A   Mostly Cloudy
7:00 PM 59.0 °F - 48.2 °F 67% 30.09 in 4.3 mi Calm Calm - N/A   Mostly Cloudy
8:00 PM 55.4 °F - 46.4 °F 72% 30.09 in 3.7 mi Calm Calm - N/A   Mostly Cloudy
9:00 PM 53 °F - 45 °F 66% 30.13 in 6 mi Calm Calm - -   Partly Cloudy
9:00 PM 53.6 °F - 46.4 °F 77% 30.09 in 3.7 mi Calm Calm - N/A   Mostly Cloudy
10:00 PM 50.0 °F - 44.6 °F 82% 30.06 in 3.7 mi Calm Calm - N/A   Mostly Cloudy
11:00 PM 48.2 °F - 44.6 °F 87% 30.06 in 4.3 mi Calm Calm - N/A   Mostly Cloudy